Florala, AL

1:47 AM CDT on June 28, 2017 (GMT -0500)
Florala

Weather History for K0J4 - September, 2012

Change the Weather History Date:

Saturday, September 8, 2012

  Actual Average (KCEW) Record (KCEW)
Temperature  
Mean Temperature 82 °F -  
Max Temperature 91 °F 91 °F 97 °F (1990)
Min Temperature 73 °F 70 °F 55 °F (2011)
Cooling Degree Days 17    
Growing Degree Days 32 (Base 50)    
Moisture  
Dew Point 73 °F    
Average Humidity 83    
Maximum Humidity 100    
Minimum Humidity 53    
Precipitation  
Precipitation 0.00 in - - ()
Sea Level Pressure  
Sea Level Pressure 29.86 in    
Wind  
Wind Speed 1 mph (ENE)    
Max Wind Speed 9 mph    
Max Gust Speed 20 mph    
Visibility 8 miles    
Events Fog    
Averages and records for this station are not official NWS values.
T = Trace of Precipitation, MM = Missing Value Source: NWS Daily Summary

Daily Weather History Graph

Daily Weather History Graph

Search for Another Location

Airport or City:

Trip Planner

Search our weather history database for the weather conditions in past years. The results will help you decide how hot, cold, wet, or windy it might be!

Date:

Astronomy

Sep. 08, 2012 Rise Set
Actual Time 6:25 AM CDT 6:59 PM CDT
Civil Twilight 6:01 AM CDT 7:23 PM CDT
Nautical Twilight 5:32 AM CDT 7:52 PM CDT
Astronomical Twilight 5:03 AM CDT 8:21 PM CDT
Moon No Moon Rise 1:38 PM CDT (9/8)
Length of Visible Light 13h 22m
Length of Day
12h 33m
Waning Gibbous, 48% of the Moon is Illuminated
Sep 8
Waning Gibbous
Sep 15
New
Sep 22
First Quarter
Sep 29
Full
Oct 8
Last Quarter

Hourly Weather History & Observations

Time (CDT) Temp. Heat Index Dew Point Humidity Pressure Visibility Wind Dir Wind Speed Gust Speed Precip Events Conditions
12:58 AM 75.0 °F - 73.0 °F 94% 29.88 in 10.0 mi Calm Calm - N/A   Clear
1:58 AM 73.0 °F - 71.1 °F 93% 29.88 in 10.0 mi Calm Calm - N/A   Partly Cloudy
2:43 AM 73.4 °F - 71.6 °F 94% 29.88 in 10.0 mi Calm Calm - N/A   Mostly Cloudy
2:58 AM 73.9 °F - 72.0 °F 93% 29.87 in 10.0 mi Calm Calm - N/A   Mostly Cloudy
3:42 AM 75.2 °F - 73.4 °F 94% 29.87 in 8.0 mi Calm Calm - N/A   Scattered Clouds
3:53 AM 73.4 °F - 73.4 °F 100% 29.87 in 9.0 mi Calm Calm - N/A   Mostly Cloudy
3:58 AM 73.9 °F - 73.0 °F 97% 29.86 in 8.0 mi Calm Calm - N/A   Mostly Cloudy
4:06 AM 73.4 °F - 71.6 °F 94% 29.87 in 7.0 mi Calm Calm - N/A   Mostly Cloudy
4:17 AM 73.4 °F - 71.6 °F 94% 29.86 in 7.0 mi Calm Calm - N/A   Mostly Cloudy
4:25 AM 73.4 °F - 71.6 °F 94% 29.86 in 2.5 mi Calm Calm - N/A   Mostly Cloudy
4:27 AM 73.4 °F - 71.6 °F 94% 29.86 in 1.5 mi Calm Calm - N/A   Overcast
4:35 AM 73.4 °F - 71.6 °F 94% 29.86 in 0.8 mi Calm Calm - N/A   Overcast
4:58 AM 73.0 °F - 72.0 °F 96% 29.85 in 0.2 mi Calm Calm - N/A Fog Fog
5:58 AM 73.0 °F - 72.0 °F 96% 29.86 in 0.5 mi Calm Calm - N/A Fog Fog
6:58 AM 73.9 °F - 73.0 °F 97% 29.88 in 0.2 mi Calm Calm - N/A Fog Fog
7:46 AM 75.2 °F - 73.4 °F 94% 29.89 in 1.0 mi East 3.5 mph - 0.00 in   Overcast
7:58 AM 75.0 °F - 73.9 °F 96% 29.88 in 1.5 mi Calm Calm - 0.00 in   Overcast
8:09 AM 75.2 °F - 75.2 °F 100% 29.90 in 0.8 mi Calm Calm - N/A   Overcast
8:14 AM 75.2 °F - 75.2 °F 100% 29.90 in 1.5 mi Calm Calm - N/A   Overcast
8:17 AM 75.2 °F - 75.2 °F 100% 29.90 in 4.0 mi Calm Calm - N/A   Overcast
8:54 AM 78.8 °F - 75.2 °F 89% 29.88 in 10.0 mi Calm Calm - N/A   Scattered Clouds
8:58 AM 78.1 °F - 75.9 °F 93% 29.87 in 10.0 mi Calm Calm - N/A   Scattered Clouds
9:05 AM 78.8 °F - 75.2 °F 89% 29.88 in 10.0 mi Variable 3.5 mph - N/A   Mostly Cloudy
9:35 AM 82.4 °F 89.5 °F 75.2 °F 79% 29.89 in 10.0 mi East 4.6 mph - N/A   Mostly Cloudy
9:46 AM 82.4 °F 89.5 °F 75.2 °F 79% 29.89 in 10.0 mi East 3.5 mph - N/A   Scattered Clouds
9:58 AM 82.9 °F 90.2 °F 75.0 °F 77% 29.87 in 10.0 mi SE 4.6 mph - N/A   Mostly Cloudy
10:58 AM 84.9 °F 92.1 °F 73.9 °F 69% 29.86 in 10.0 mi East 5.8 mph - N/A   Scattered Clouds
11:58 AM - - - N/A% - 10.0 mi Calm Calm - N/A   Unknown
12:23 PM 87.8 °F 95.6 °F 73.4 °F 62% 29.85 in 10.0 mi Calm Calm - N/A   Mostly Cloudy
12:29 PM 87.8 °F 95.6 °F 73.4 °F 62% 29.85 in 10.0 mi Calm Calm - N/A   Mostly Cloudy
12:39 PM 87.8 °F 95.6 °F 73.4 °F 62% 29.85 in 10.0 mi Calm Calm - N/A   Mostly Cloudy
12:49 PM 87.8 °F 95.6 °F 73.4 °F 62% 29.84 in 10.0 mi South 4.6 mph - N/A   Mostly Cloudy
12:58 PM 87.1 °F 93.6 °F 72.0 °F 61% 29.83 in 10.0 mi SSW 4.6 mph - N/A   Scattered Clouds
1:58 PM 88.0 °F 96.5 °F 73.9 °F 63% 29.80 in 10.0 mi North 4.6 mph - N/A   Overcast
2:58 PM 91.0 °F 98.2 °F 72.0 °F 53% 29.78 in 10.0 mi ENE 4.6 mph - 0.00 in   Partly Cloudy
3:58 PM 91.0 °F 99.3 °F 73.0 °F 55% 29.77 in 10.0 mi North 6.9 mph - N/A   Partly Cloudy
4:58 PM 88.0 °F 94.7 °F 72.0 °F 59% 29.78 in 10.0 mi Calm Calm - N/A   Clear
5:58 PM 82.0 °F 86.3 °F 71.1 °F 69% 29.81 in 10.0 mi North 9.2 mph 19.6 mph N/A   Scattered Clouds
6:58 PM 80.1 °F 84.2 °F 73.0 °F 79% 29.82 in 10.0 mi North 5.8 mph - N/A   Partly Cloudy
7:58 PM 79.0 °F - 72.0 °F 79% 29.81 in 10.0 mi Calm Calm - N/A   Partly Cloudy
8:58 PM 78.1 °F - 73.0 °F 84% 29.86 in 10.0 mi Calm Calm - N/A   Mostly Cloudy
9:58 PM 77.0 °F - 72.0 °F 84% 29.88 in 10.0 mi Calm Calm - N/A   Mostly Cloudy
10:58 PM 77.0 °F - 71.1 °F 82% 29.88 in 10.0 mi Variable 5.8 mph - N/A   Partly Cloudy
11:58 PM 75.9 °F - 71.1 °F 85% 29.88 in 10.0 mi North 6.9 mph - N/A   Mostly Cloudy